Weather History for Bedford, MA

Change the Weather History Date:

Sunday, June 8, 2014

  Actual Average Record
Temperature  
Mean Temperature 68 °F -  
Max Temperature 84 °F 75 °F 94 °F (1984)
Min Temperature 54 °F 52 °F 36 °F (2002)
Cooling Degree Days 3    
Growing Degree Days 18 (Base 50)    
Moisture  
Dew Point 56 °F    
Average Humidity 64    
Maximum Humidity 100    
Minimum Humidity 34    
Precipitation  
Precipitation 0.00 in - - ()
Sea Level Pressure  
Sea Level Pressure 29.93 in    
Wind  
Wind Speed 2 mph (South)    
Max Wind Speed 13 mph    
Max Gust Speed -    
Visibility 10 miles    
Events      
Averages and records for this station are not official NWS values.
T = Trace of Precipitation, MM = Missing Value Source: NWS Daily Summary

Daily Weather History Graph

Daily Weather History Graph

Search for Another Location

Airport:

Trip Planner

Search our weather history database for the weather conditions in past years. The results will help you decide how hot, cold, wet, or windy it might be!

Date:

Astronomy

Jun. 08, 2014 Rise Set
Actual Time 5:08 AM EDT 8:20 PM EDT
Civil Twilight 4:33 AM EDT 8:55 PM EDT
Nautical Twilight 3:49 AM EDT 9:39 PM EDT
Astronomical Twilight 2:55 AM EDT 10:33 PM EDT
Moon 3:30 PM EDT (6/8) 2:05 AM EDT (6/8)
Length of Visible Light 16h 21m
Length of Day
15h 12m
Waxing Gibbous, 77% of the Moon is Illuminated
Jun 8
Waxing Gibbous
Jun 13
Full
Jun 19
Last Quarter
Jun 27
New
Jul 5
First Quarter

Hourly Weather History & Observations

Time (EDT) Temp. Heat Index Dew Point Humidity Pressure Visibility Wind Dir Wind Speed Gust Speed Precip Events Conditions
12:56 AM 59.0 °F - 57.9 °F 96% 29.96 in 10.0 mi Calm Calm - N/A   Clear
1:56 AM 57.2 °F - 57.2 °F 100% 29.92 in 10.0 mi Calm Calm - N/A   Clear
2:56 AM 55.9 °F - 55.9 °F 100% 29.94 in 10.0 mi Calm Calm - N/A   Clear
3:56 AM 55.0 °F - 55.0 °F 100% 29.94 in 10.0 mi Calm Calm - N/A   Clear
4:56 AM 54.0 °F - 54.0 °F 100% 29.95 in 10.0 mi Calm Calm - N/A   Clear
5:56 AM 54.0 °F - 53.1 °F 97% 29.96 in 10.0 mi Calm Calm - N/A   Clear
6:56 AM 61.0 °F - 57.9 °F 90% 29.97 in 10.0 mi Calm Calm - N/A   Clear
7:56 AM 69.1 °F - 59.0 °F 70% 29.97 in 10.0 mi Calm Calm - N/A   Clear
8:56 AM 73.9 °F - 57.9 °F 57% 29.96 in 10.0 mi ENE 3.5 mph - N/A   Clear
9:56 AM 79.0 °F - 57.0 °F 47% 29.95 in 10.0 mi Calm Calm - N/A   Clear
10:56 AM 81.0 °F - 51.1 °F 35% 29.96 in 10.0 mi Calm Calm - N/A   Clear
11:56 AM 82.0 °F 81.3 °F 54.0 °F 38% 29.95 in 10.0 mi WSW 9.2 mph - N/A   Partly Cloudy
1:56 PM 82.0 °F 81.3 °F 54.0 °F 38% 29.93 in 10.0 mi Variable 3.5 mph - N/A   Mostly Cloudy
2:56 PM 82.0 °F 81.4 °F 55.0 °F 39% 29.92 in 10.0 mi SSW 5.8 mph - N/A   Mostly Cloudy
3:56 PM 82.9 °F 81.9 °F 54.0 °F 37% 29.91 in 10.0 mi SSW 12.7 mph - N/A   Clear
4:56 PM 82.9 °F - 52.0 °F 34% 29.89 in 10.0 mi Calm Calm - N/A   Clear
5:56 PM 82.9 °F 81.8 °F 53.1 °F 36% 29.88 in 10.0 mi Variable 4.6 mph - N/A   Scattered Clouds
6:56 PM 79.0 °F - 57.0 °F 47% 29.89 in 10.0 mi SSE 4.6 mph - N/A   Clear
7:56 PM 77.0 °F - 57.9 °F 52% 29.89 in 10.0 mi SE 8.1 mph - N/A   Mostly Cloudy
8:56 PM 73.0 °F - 59.0 °F 61% 29.90 in 10.0 mi SSE 6.9 mph - N/A   Clear
9:56 PM 72.0 °F - 57.9 °F 61% 29.91 in 10.0 mi South 6.9 mph - N/A   Clear
10:56 PM 69.1 °F - 57.9 °F 68% 29.91 in 10.0 mi SSW 6.9 mph - N/A   Clear
11:56 PM 66.9 °F - 57.9 °F 73% 29.93 in 10.0 mi SSW 4.6 mph - N/A   Clear